| time (UTC) | temp F | wind direction | speed MPH | gust MPH | rain 1hr in | rain 24hr in | rain mn in | humidity % | barometer mb |
| 20260510215958 | 62 | 141 | 0.0 | 0.0 | 0.00 | 0.00 | 0.00 | 51 | 1020.4 |
| 20260510215456 | 62 | 138 | 0.0 | 0.0 | 0.00 | 0.00 | 0.00 | 49 | 1020.3 |
| 20260510214954 | 63 | 140 | 0.0 | 0.0 | 0.00 | 0.00 | 0.00 | 48 | 1020.1 |
| 20260510214450 | 64 | 179 | 2.0 | 2.0 | 0.00 | 0.00 | 0.00 | 47 | 1020.2 |
| 20260510213947 | 64 | 144 | 1.0 | 1.0 | 0.00 | 0.00 | 0.00 | 47 | 1020.1 |
| 20260510213443 | 65 | 320 | 3.0 | 3.0 | 0.00 | 0.00 | 0.00 | 44 | 1020.1 |
| 20260510212934 | 66 | 181 | 3.0 | 3.0 | 0.00 | 0.00 | 0.00 | 46 | 1019.6 |
| 20260510212431 | 66 | 78 | 0.0 | 1.0 | 0.00 | 0.00 | 0.00 | 45 | 1019.7 |
| 20260510211927 | 66 | 159 | 0.0 | 0.0 | 0.00 | 0.00 | 0.00 | 49 | 1019.8 |
| 20260510211425 | 67 | 126 | 1.0 | 3.0 | 0.00 | 0.00 | 0.00 | 45 | 1019.6 |
| 20260510210919 | 67 | 142 | 1.0 | 1.0 | 0.00 | 0.00 | 0.00 | 46 | 1019.7 |
| 20260510210415 | 66 | 136 | 1.0 | 3.0 | 0.00 | 0.00 | 0.00 | 44 | 1019.9 |
| 20260510205914 | 66 | 132 | 0.0 | 0.0 | 0.00 | 0.00 | 0.00 | 47 | 1019.9 |
| 20260510205409 | 66 | 148 | 1.0 | 1.0 | 0.00 | 0.00 | 0.00 | 47 | 1019.8 |
| 20260510204906 | 66 | 152 | 0.0 | 1.0 | 0.00 | 0.00 | 0.00 | 48 | 1019.8 |
| 20260510204402 | 66 | 142 | 2.0 | 3.0 | 0.00 | 0.00 | 0.00 | 44 | 1019.7 |
| 20260510203859 | 67 | 130 | 1.0 | 1.0 | 0.00 | 0.00 | 0.00 | 47 | 1019.9 |
| 20260510203356 | 66 | 149 | 1.0 | 1.0 | 0.00 | 0.00 | 0.00 | 44 | 1019.7 |
| 20260510202851 | 67 | 118 | 3.0 | 5.0 | 0.00 | 0.00 | 0.00 | 46 | 1019.7 |
| 20260510202347 | 68 | 233 | 2.0 | 2.0 | 0.00 | 0.00 | 0.00 | 47 | 1019.8 |
| 20260510201843 | 67 | 203 | 1.0 | 1.0 | 0.00 | 0.00 | 0.00 | 46 | 1019.8 |
| 20260510201341 | 67 | 144 | 1.0 | 1.0 | 0.00 | 0.00 | 0.00 | 46 | 1019.9 |
| 20260510200837 | 67 | 221 | 3.0 | 3.0 | 0.00 | 0.00 | 0.00 | 44 | 1019.9 |
| 20260510200336 | 67 | 146 | 1.0 | 2.0 | 0.00 | 0.00 | 0.00 | 47 | 1020.1 |
| 20260510195831 | 67 | 136 | 2.0 | 3.0 | 0.00 | 0.00 | 0.00 | 44 | 1019.8 |
| 20260510195328 | 67 | 170 | 0.0 | 0.0 | 0.00 | 0.00 | 0.00 | 49 | 1020.1 |
| 20260510194823 | 67 | 144 | 1.0 | 2.0 | 0.00 | 0.00 | 0.00 | 45 | 1020.2 |
| 20260510194320 | 67 | 223 | 3.0 | 3.0 | 0.00 | 0.00 | 0.00 | 46 | 1020.2 |
| 20260510193815 | 67 | 149 | 0.0 | 1.0 | 0.00 | 0.00 | 0.00 | 43 | 1020.1 |
| 20260510193310 | 67 | 156 | 0.0 | 0.0 | 0.00 | 0.00 | 0.00 | 46 | 1020.1 |
| 20260510192806 | 67 | 299 | 4.0 | 6.0 | 0.00 | 0.00 | 0.00 | 45 | 1019.8 |
| 20260510192301 | 67 | 185 | 1.0 | 2.0 | 0.00 | 0.00 | 0.00 | 47 | 1019.9 |
| 20260510191758 | 67 | 154 | 2.0 | 2.0 | 0.00 | 0.00 | 0.00 | 46 | 1020.2 |
| 20260510191254 | 66 | 154 | 0.0 | 1.0 | 0.00 | 0.00 | 0.00 | 48 | 1020.1 |
| 20260510190752 | 66 | 196 | 1.0 | 2.0 | 0.00 | 0.00 | 0.00 | 46 | 1020.1 |
| 20260510190248 | 66 | 115 | 1.0 | 2.0 | 0.00 | 0.00 | 0.00 | 46 | 1020.1 |
| 20260510185745 | 68 | 138 | 1.0 | 1.0 | 0.00 | 0.00 | 0.00 | 44 | 1019.8 |
| 20260510185244 | 68 | 109 | 1.0 | 2.0 | 0.00 | 0.00 | 0.00 | 45 | 1019.7 |
| 20260510184740 | 66 | 153 | 0.0 | 1.0 | 0.00 | 0.00 | 0.00 | 46 | 1020.0 |
| 20260510184237 | 66 | 304 | 3.0 | 3.0 | 0.00 | 0.00 | 0.00 | 44 | 1019.9 |
| 20260510183731 | 67 | 36 | 4.0 | 5.0 | 0.00 | 0.00 | 0.00 | 46 | 1019.8 |
| 20260510183226 | 66 | 159 | 3.0 | 3.0 | 0.00 | 0.00 | 0.00 | 47 | 1020.1 |
| 20260510182723 | 67 | 357 | 4.0 | 8.0 | 0.00 | 0.00 | 0.00 | 46 | 1020.0 |
| 20260510182219 | 67 | 170 | 3.0 | 3.0 | 0.00 | 0.00 | 0.00 | 47 | 1019.8 |
| 20260510181716 | 65 | 206 | 3.0 | 3.0 | 0.00 | 0.00 | 0.00 | 51 | 1019.7 |
| 20260510181213 | 66 | 160 | 0.0 | 0.0 | 0.00 | 0.00 | 0.00 | 47 | 1019.8 |
| 20260510180709 | 66 | 296 | 4.0 | 5.0 | 0.00 | 0.00 | 0.00 | 47 | 1019.9 |
| 20260510180207 | 66 | 186 | 4.0 | 5.0 | 0.00 | 0.00 | 0.00 | 48 | 1019.9 |
| 20260510175702 | 66 | 340 | 1.0 | 5.0 | 0.00 | 0.00 | 0.00 | 52 | 1019.9 |
| 20260510175158 | 66 | 176 | 4.0 | 7.0 | 0.00 | 0.00 | 0.00 | 46 | 1019.6 |
| 20260510174655 | 65 | 154 | 1.0 | 1.0 | 0.00 | 0.00 | 0.00 | 49 | 1019.6 |
| 20260510174153 | 66 | 152 | 3.0 | 3.0 | 0.00 | 0.00 | 0.00 | 45 | 1019.5 |
| 20260510173649 | 66 | 136 | 2.0 | 3.0 | 0.00 | 0.00 | 0.00 | 48 | 1019.4 |
| 20260510173145 | 66 | 140 | 0.0 | 1.0 | 0.00 | 0.00 | 0.00 | 51 | 1019.4 |
| 20260510172640 | 66 | 149 | 1.0 | 2.0 | 0.00 | 0.00 | 0.00 | 48 | 1019.6 |
| 20260510172137 | 65 | 125 | 0.0 | 0.0 | 0.00 | 0.00 | 0.00 | 50 | 1019.8 |
| 20260510171634 | 65 | 275 | 3.0 | 6.0 | 0.00 | 0.00 | 0.00 | 47 | 1019.7 |
| 20260510171132 | 66 | 246 | 3.0 | 5.0 | 0.00 | 0.00 | 0.00 | 45 | 1019.5 |
| 20260510170628 | 66 | 171 | 1.0 | 2.0 | 0.00 | 0.00 | 0.00 | 49 | 1019.5 |
| 20260510170124 | 66 | 164 | 3.0 | 3.0 | 0.00 | 0.00 | 0.00 | 45 | 1019.6 |
| 20260510165620 | 65 | 141 | 2.0 | 2.0 | 0.00 | 0.00 | 0.00 | 46 | 1019.7 |
| 20260510165116 | 64 | 277 | 3.0 | 5.0 | 0.00 | 0.00 | 0.00 | 44 | 1019.6 |
| 20260510164614 | 66 | 145 | 1.0 | 2.0 | 0.00 | 0.00 | 0.00 | 45 | 1019.7 |
| 20260510164110 | 66 | 266 | 3.0 | 5.0 | 0.00 | 0.00 | 0.00 | 44 | 1019.8 |
| 20260510163605 | 65 | 314 | 4.0 | 5.0 | 0.00 | 0.00 | 0.00 | 44 | 1020.0 |
| 20260510163102 | 65 | 143 | 2.0 | 5.0 | 0.00 | 0.00 | 0.00 | 49 | 1019.7 |
| 20260510162556 | 65 | 130 | 1.0 | 1.0 | 0.00 | 0.00 | 0.00 | 49 | 1019.8 |
| 20260510162053 | 64 | 126 | 2.0 | 2.0 | 0.00 | 0.00 | 0.00 | 43 | 1019.6 |
| 20260510161549 | 64 | 266 | 2.0 | 3.0 | 0.00 | 0.00 | 0.00 | 45 | 1019.7 |
| 20260510161046 | 63 | 257 | 3.0 | 3.0 | 0.00 | 0.00 | 0.00 | 47 | 1019.8 |
| 20260510160543 | 64 | 142 | 2.0 | 3.0 | 0.00 | 0.00 | 0.00 | 45 | 1019.7 |
| 20260510160042 | 63 | 340 | 3.0 | 5.0 | 0.00 | 0.00 | 0.00 | 47 | 1019.8 |
| 20260510155539 | 64 | 243 | 5.0 | 6.0 | 0.00 | 0.00 | 0.00 | 46 | 1019.7 |
| 20260510155036 | 64 | 129 | 2.0 | 2.0 | 0.00 | 0.00 | 0.00 | 45 | 1019.7 |
| 20260510154531 | 64 | 134 | 1.0 | 1.0 | 0.00 | 0.00 | 0.00 | 47 | 1019.6 |
| 20260510154027 | 64 | 141 | 0.0 | 0.0 | 0.00 | 0.00 | 0.00 | 52 | 1019.6 |
| 20260510153522 | 62 | 147 | 1.0 | 1.0 | 0.00 | 0.00 | 0.00 | 53 | 1019.5 |
| 20260510153019 | 63 | 238 | 4.0 | 6.0 | 0.00 | 0.00 | 0.00 | 51 | 1019.3 |
| 20260510152516 | 64 | 128 | 2.0 | 3.0 | 0.00 | 0.00 | 0.00 | 51 | 1019.3 |
| 20260510152012 | 63 | 82 | 2.0 | 3.0 | 0.00 | 0.00 | 0.00 | 52 | 1019.1 |
| 20260510151509 | 63 | 91 | 1.0 | 2.0 | 0.00 | 0.00 | 0.00 | 51 | 1019.1 |
| 20260510151007 | 63 | 54 | 2.0 | 2.0 | 0.00 | 0.00 | 0.00 | 52 | 1019.3 |
| 20260510150501 | 62 | 154 | 0.0 | 1.0 | 0.00 | 0.00 | 0.00 | 52 | 1018.9 |
| 20260510145957 | 62 | 156 | 2.0 | 2.0 | 0.00 | 0.00 | 0.00 | 53 | 1019.1 |
| 20260510145454 | 62 | 24 | 4.0 | 6.0 | 0.00 | 0.00 | 0.00 | 53 | 1019.0 |
| 20260510144951 | 62 | 300 | 4.0 | 5.0 | 0.00 | 0.00 | 0.00 | 51 | 1018.8 |
| 20260510144448 | 62 | 225 | 3.0 | 3.0 | 0.00 | 0.00 | 0.00 | 55 | 1019.2 |
| 20260510143943 | 62 | 155 | 1.0 | 2.0 | 0.00 | 0.00 | 0.00 | 54 | 1018.8 |
| 20260510143438 | 62 | 144 | 1.0 | 2.0 | 0.00 | 0.00 | 0.00 | 56 | 1018.4 |
| 20260510142936 | 62 | 134 | 1.0 | 2.0 | 0.00 | 0.00 | 0.00 | 52 | 1018.3 |
| 20260510142427 | 62 | 128 | 2.0 | 3.0 | 0.00 | 0.00 | 0.00 | 53 | 1018.3 |
| 20260510141924 | 63 | 128 | 2.0 | 3.0 | 0.00 | 0.00 | 0.00 | 53 | 1018.3 |
| 20260510141420 | 62 | 148 | 1.0 | 2.0 | 0.00 | 0.00 | 0.00 | 53 | 1018.6 |
| 20260510140918 | 61 | 145 | 0.0 | 0.0 | 0.00 | 0.00 | 0.00 | 58 | 1018.1 |
| 20260510140413 | 60 | 94 | 2.0 | 2.0 | 0.00 | 0.00 | 0.00 | 54 | 1018.2 |
| 20260510135907 | 60 | 142 | 1.0 | 2.0 | 0.00 | 0.00 | 0.00 | 54 | 1018.2 |
| 20260510135404 | 60 | 114 | 1.0 | 2.0 | 0.00 | 0.00 | 0.00 | 53 | 1018.3 |
| 20260510134901 | 60 | 143 | 3.0 | 5.0 | 0.00 | 0.00 | 0.00 | 54 | 1018.2 |
| 20260510134357 | 59 | 92 | 2.0 | 2.0 | 0.00 | 0.00 | 0.00 | 55 | 1018.2 |
| 20260510133854 | 59 | 151 | 0.0 | 2.0 | 0.00 | 0.00 | 0.00 | 60 | 1018.1 |
| 20260510133350 | 58 | 129 | 1.0 | 1.0 | 0.00 | 0.00 | 0.00 | 59 | 1018.1 |
| 20260510132845 | 57 | 152 | 1.0 | 2.0 | 0.00 | 0.00 | 0.00 | 58 | 1018.1 |
| 20260510132344 | 56 | 144 | 0.0 | 0.0 | 0.00 | 0.00 | 0.00 | 62 | 1018.1 |
| 20260510131840 | 56 | 137 | 0.0 | 0.0 | 0.00 | 0.00 | 0.00 | 60 | 1017.8 |
| 20260510131338 | 57 | 145 | 1.0 | 1.0 | 0.00 | 0.00 | 0.00 | 59 | 1017.9 |
| 20260510130834 | 57 | 160 | 0.0 | 0.0 | 0.00 | 0.00 | 0.00 | 62 | 1017.8 |
| 20260510130331 | 57 | 141 | 1.0 | 1.0 | 0.00 | 0.00 | 0.00 | 63 | 1017.8 |
| 20260510125828 | 56 | 149 | 0.0 | 0.0 | 0.00 | 0.00 | 0.00 | 64 | 1017.8 |
| 20260510125324 | 56 | 130 | 2.0 | 2.0 | 0.00 | 0.00 | 0.00 | 63 | 1017.9 |
| 20260510124821 | 56 | 142 | 0.0 | 0.0 | 0.00 | 0.00 | 0.00 | 69 | 1017.6 |
| 20260510124318 | 56 | 142 | 0.0 | 0.0 | 0.00 | 0.00 | 0.00 | 69 | 1017.6 |
| 20260510123814 | 56 | 57 | 2.0 | 2.0 | 0.00 | 0.00 | 0.00 | 67 | 1017.7 |
| 20260510123310 | 55 | 68 | 2.0 | 2.0 | 0.00 | 0.00 | 0.00 | 70 | 1017.2 |
| 20260510122806 | 55 | 143 | 0.0 | 0.0 | 0.00 | 0.00 | 0.00 | 72 | 1017.3 |
| 20260510122306 | 55 | 141 | 0.0 | 0.0 | 0.00 | 0.00 | 0.00 | 72 | 1017.0 |
| 20260510121758 | 55 | 133 | 1.0 | 2.0 | 0.00 | 0.00 | 0.00 | 71 | 1017.2 |
| 20260510121256 | 56 | 143 | 0.0 | 0.0 | 0.00 | 0.00 | 0.00 | 71 | 1017.2 |
| 20260510120753 | 55 | 138 | 0.0 | 1.0 | 0.00 | 0.00 | 0.00 | 72 | 1016.9 |
| 20260510120250 | 55 | 156 | 0.0 | 0.0 | 0.00 | 0.00 | 0.00 | 72 | 1017.0 |
| 20260510115746 | 55 | 146 | 1.0 | 2.0 | 0.00 | 0.00 | 0.00 | 73 | 1016.9 |
| 20260510115244 | 55 | 139 | 0.0 | 0.0 | 0.00 | 0.00 | 0.00 | 75 | 1017.0 |
| 20260510114738 | 55 | 151 | 0.0 | 0.0 | 0.00 | 0.00 | 0.00 | 75 | 1016.9 |
| 20260510114236 | 55 | 145 | 0.0 | 0.0 | 0.00 | 0.00 | 0.00 | 76 | 1016.8 |
| 20260510113731 | 55 | 147 | 0.0 | 0.0 | 0.00 | 0.00 | 0.00 | 77 | 1017.0 |
| 20260510113229 | 55 | 139 | 0.0 | 0.0 | 0.00 | 0.00 | 0.00 | 76 | 1016.6 |
| 20260510112725 | 55 | 144 | 0.0 | 0.0 | 0.00 | 0.00 | 0.00 | 76 | 1016.5 |
| 20260510112222 | 55 | 156 | 0.0 | 0.0 | 0.00 | 0.00 | 0.00 | 75 | 1016.4 |
| 20260510111717 | 55 | 154 | 0.0 | 0.0 | 0.00 | 0.00 | 0.00 | 75 | 1016.6 |
| 20260510111214 | 55 | 140 | 0.0 | 1.0 | 0.00 | 0.00 | 0.00 | 76 | 1016.4 |
| 20260510110709 | 55 | 157 | 0.0 | 1.0 | 0.00 | 0.00 | 0.00 | 74 | 1016.3 |
| 20260510110207 | 55 | 138 | 0.0 | 0.0 | 0.00 | 0.00 | 0.00 | 74 | 1016.0 |
| 20260510105707 | 55 | 126 | 1.0 | 1.0 | 0.00 | 0.00 | 0.00 | 74 | 1015.9 |
| 20260510105207 | 55 | 145 | 0.0 | 0.0 | 0.00 | 0.00 | 0.00 | 74 | 1016.0 |
| 20260510104704 | 55 | 143 | 0.0 | 0.0 | 0.00 | 0.00 | 0.00 | 74 | 1016.1 |
| 20260510104201 | 55 | 76 | 3.0 | 3.0 | 0.00 | 0.00 | 0.00 | 73 | 1015.9 |
| 20260510103657 | 55 | 146 | 0.0 | 1.0 | 0.00 | 0.00 | 0.00 | 74 | 1015.9 |
| 20260510103154 | 55 | 156 | 1.0 | 1.0 | 0.00 | 0.00 | 0.00 | 73 | 1015.5 |
| 20260510102654 | 55 | 148 | 1.0 | 2.0 | 0.00 | 0.00 | 0.00 | 73 | 1015.3 |
| 20260510102150 | 56 | 142 | 0.0 | 1.0 | 0.00 | 0.00 | 0.00 | 73 | 1015.1 |
| 20260510101648 | 56 | 130 | 1.0 | 2.0 | 0.00 | 0.00 | 0.00 | 73 | 1015.4 |
| 20260510101147 | 56 | 156 | 1.0 | 1.0 | 0.00 | 0.00 | 0.00 | 74 | 1015.3 |
| 20260510100642 | 56 | 182 | 1.0 | 1.0 | 0.00 | 0.00 | 0.00 | 73 | 1015.1 |
| 20260510100140 | 56 | 127 | 2.0 | 2.0 | 0.00 | 0.00 | 0.00 | 73 | 1015.1 |
| 20260510095635 | 57 | 124 | 0.0 | 0.0 | 0.00 | 0.00 | 0.00 | 73 | 1014.8 |
| 20260510095130 | 57 | 151 | 2.0 | 2.0 | 0.00 | 0.00 | 0.00 | 75 | 1014.6 |
| 20260510094629 | 57 | 120 | 0.0 | 0.0 | 0.00 | 0.00 | 0.00 | 74 | 1014.6 |
| 20260510094125 | 57 | 139 | 2.0 | 2.0 | 0.00 | 0.00 | 0.00 | 73 | 1014.8 |
| 20260510093622 | 57 | 139 | 0.0 | 1.0 | 0.00 | 0.00 | 0.00 | 73 | 1014.8 |
| 20260510093119 | 57 | 247 | 3.0 | 3.0 | 0.00 | 0.00 | 0.00 | 74 | 1014.7 |
| 20260510092615 | 58 | 142 | 0.0 | 0.0 | 0.00 | 0.00 | 0.00 | 75 | 1014.8 |
| 20260510092115 | 58 | 155 | 0.0 | 1.0 | 0.00 | 0.00 | 0.00 | 73 | 1014.6 |
| 20260510091612 | 58 | 150 | 0.0 | 0.0 | 0.00 | 0.00 | 0.00 | 73 | 1014.4 |
| 20260510091108 | 58 | 77 | 2.0 | 2.0 | 0.00 | 0.00 | 0.00 | 74 | 1014.2 |
| 20260510090605 | 58 | 137 | 1.0 | 1.0 | 0.00 | 0.00 | 0.00 | 76 | 1014.1 |
| 20260510090101 | 58 | 168 | 1.0 | 2.0 | 0.00 | 0.00 | 0.00 | 75 | 1013.8 |
| 20260510085555 | 59 | 161 | 0.0 | 0.0 | 0.00 | 0.00 | 0.00 | 75 | 1013.8 |
| 20260510085052 | 59 | 112 | 2.0 | 2.0 | 0.00 | 0.00 | 0.00 | 75 | 1013.7 |
| 20260510084549 | 59 | 143 | 3.0 | 3.0 | 0.00 | 0.00 | 0.00 | 75 | 1013.3 |
| 20260510084045 | 59 | 264 | 1.0 | 2.0 | 0.00 | 0.00 | 0.00 | 76 | 1013.4 |
| 20260510083542 | 59 | 139 | 0.0 | 0.0 | 0.00 | 0.00 | 0.00 | 78 | 1013.1 |
| 20260510083038 | 59 | 147 | 0.0 | 1.0 | 0.00 | 0.00 | 0.00 | 79 | 1013.0 |
| 20260510082535 | 59 | 138 | 0.0 | 0.0 | 0.00 | 0.00 | 0.00 | 80 | 1012.9 |
| 20260510082031 | 59 | 119 | 0.0 | 0.0 | 0.00 | 0.00 | 0.00 | 81 | 1012.8 |
| 20260510081526 | 58 | 148 | 0.0 | 0.0 | 0.00 | 0.00 | 0.00 | 85 | 1013.0 |
| 20260510081022 | 58 | 112 | 0.0 | 0.0 | 0.00 | 0.00 | 0.00 | 85 | 1012.9 |
| 20260510080521 | 58 | 127 | 0.0 | 0.0 | 0.00 | 0.00 | 0.00 | 85 | 1013.0 |
| 20260510080018 | 58 | 143 | 0.0 | 0.0 | 0.00 | 0.00 | 0.00 | 85 | 1012.8 |
| 20260510075515 | 58 | 143 | 0.0 | 0.0 | 0.00 | 0.00 | 0.00 | 85 | 1012.6 |
| 20260510075012 | 58 | 143 | 0.0 | 0.0 | 0.00 | 0.00 | 0.00 | 85 | 1012.6 |
| 20260510074510 | 59 | 142 | 0.0 | 0.0 | 0.00 | 0.00 | 0.00 | 83 | 1012.8 |
| 20260510074005 | 59 | 145 | 0.0 | 0.0 | 0.00 | 0.00 | 0.00 | 83 | 1012.8 |
| 20260510073501 | 59 | 130 | 0.0 | 1.0 | 0.00 | 0.00 | 0.00 | 81 | 1012.7 |
| 20260510072958 | 59 | 145 | 0.0 | 0.0 | 0.00 | 0.00 | 0.00 | 81 | 1012.8 |
| 20260510072454 | 59 | 133 | 1.0 | 2.0 | 0.00 | 0.00 | 0.00 | 81 | 1012.8 |
| 20260510071950 | 59 | 142 | 0.0 | 0.0 | 0.00 | 0.00 | 0.00 | 81 | 1013.0 |
| 20260510071447 | 59 | 146 | 0.0 | 0.0 | 0.00 | 0.00 | 0.00 | 85 | 1013.1 |
| 20260510070945 | 59 | 145 | 0.0 | 0.0 | 0.00 | 0.00 | 0.00 | 82 | 1012.7 |
| 20260510070442 | 60 | 147 | 0.0 | 0.0 | 0.00 | 0.00 | 0.00 | 81 | 1012.6 |
| 20260510065937 | 60 | 156 | 0.0 | 0.0 | 0.00 | 0.00 | 0.00 | 78 | 1012.5 |
| 20260510065435 | 60 | 149 | 0.0 | 0.0 | 0.00 | 0.00 | 0.00 | 83 | 1012.5 |
| 20260510064930 | 60 | 145 | 0.0 | 0.0 | 0.00 | 0.00 | 0.00 | 81 | 1012.7 |
| 20260510064428 | 59 | 113 | 0.0 | 1.0 | 0.00 | 0.00 | 0.00 | 78 | 1012.8 |
| 20260510063925 | 59 | 145 | 0.0 | 0.0 | 0.00 | 0.00 | 0.00 | 79 | 1012.8 |
| 20260510063420 | 60 | 148 | 0.0 | 0.0 | 0.00 | 0.00 | 0.00 | 81 | 1012.9 |
| 20260510062919 | 60 | 148 | 0.0 | 0.0 | 0.00 | 0.00 | 0.00 | 78 | 1012.8 |
| 20260510062414 | 61 | 145 | 0.0 | 0.0 | 0.00 | 0.00 | 0.00 | 77 | 1012.6 |
| 20260510061909 | 61 | 154 | 0.0 | 0.0 | 0.00 | 0.00 | 0.00 | 77 | 1012.3 |
| 20260510061406 | 61 | 141 | 0.0 | 0.0 | 0.00 | 0.00 | 0.00 | 76 | 1012.7 |
| 20260510060902 | 62 | 158 | 0.0 | 0.0 | 0.00 | 0.00 | 0.00 | 79 | 1012.7 |
| 20260510060359 | 62 | 140 | 0.0 | 0.0 | 0.00 | 0.00 | 0.00 | 78 | 1012.6 |
| 20260510055855 | 62 | 149 | 0.0 | 0.0 | 0.00 | 0.00 | 0.00 | 76 | 1012.6 |
| 20260510055355 | 63 | 145 | 1.0 | 2.0 | 0.00 | 0.00 | 0.00 | 76 | 1012.7 |
| 20260510054849 | 63 | 148 | 1.0 | 2.0 | 0.00 | 0.00 | 0.00 | 78 | 1012.9 |
| 20260510054345 | 63 | 173 | 1.0 | 2.0 | 0.00 | 0.00 | 0.00 | 79 | 1013.2 |
| 20260510053839 | 63 | 320 | 5.0 | 6.0 | 0.00 | 0.00 | 0.00 | 77 | 1012.9 |
| 20260510053335 | 62 | 177 | 2.0 | 5.0 | 0.00 | 0.00 | 0.00 | 77 | 1012.9 |
| 20260510052832 | 61 | 204 | 2.0 | 2.0 | 0.00 | 0.00 | 0.00 | 82 | 1013.0 |
| 20260510052327 | 61 | 142 | 0.0 | 0.0 | 0.00 | 0.00 | 0.00 | 84 | 1013.0 |
| 20260510051824 | 62 | 149 | 0.0 | 0.0 | 0.00 | 0.00 | 0.00 | 83 | 1012.5 |
| 20260510051321 | 62 | 151 | 0.0 | 0.0 | 0.00 | 0.00 | 0.00 | 79 | 1012.5 |
| 20260510050818 | 62 | 155 | 0.0 | 0.0 | 0.00 | 0.00 | 0.00 | 77 | 1012.4 |
| 20260510050314 | 62 | 146 | 0.0 | 0.0 | 0.00 | 0.00 | 0.00 | 78 | 1012.5 |
| 20260510045811 | 62 | 146 | 0.0 | 0.0 | 0.00 | 0.00 | 0.00 | 78 | 1012.3 |
| 20260510045307 | 62 | 147 | 0.0 | 0.0 | 0.00 | 0.00 | 0.00 | 78 | 1012.1 |
| 20260510044805 | 62 | 150 | 0.0 | 0.0 | 0.00 | 0.00 | 0.00 | 79 | 1012.2 |
| 20260510044302 | 61 | 147 | 0.0 | 0.0 | 0.00 | 0.00 | 0.00 | 80 | 1012.1 |
| 20260510043758 | 62 | 145 | 0.0 | 0.0 | 0.00 | 0.00 | 0.00 | 81 | 1012.4 |
| 20260510043249 | 62 | 145 | 0.0 | 0.0 | 0.00 | 0.00 | 0.00 | 79 | 1012.2 |
| 20260510042746 | 61 | 145 | 0.0 | 0.0 | 0.00 | 0.00 | 0.00 | 81 | 1011.9 |
| 20260510042241 | 60 | 148 | 0.0 | 0.0 | 0.00 | 0.00 | 0.00 | 82 | 1012.1 |
| 20260510041739 | 60 | 144 | 0.0 | 0.0 | 0.00 | 0.00 | 0.00 | 84 | 1011.9 |
| 20260510041236 | 60 | 142 | 0.0 | 0.0 | 0.00 | 0.00 | 0.00 | 85 | 1011.9 |
| 20260510040733 | 61 | 152 | 0.0 | 0.0 | 0.00 | 0.00 | 0.00 | 85 | 1012.0 |
| 20260510040230 | 61 | 149 | 0.0 | 0.0 | 0.00 | 0.00 | 0.00 | 82 | 1011.8 |
| 20260510035725 | 62 | 155 | 0.0 | 0.0 | 0.00 | 0.20 | 0.20 | 78 | 1011.8 |
| 20260510035221 | 61 | 151 | 0.0 | 0.0 | 0.00 | 0.20 | 0.20 | 78 | 1011.7 |
| 20260510034717 | 62 | 162 | 0.0 | 0.0 | 0.00 | 0.20 | 0.20 | 81 | 1011.6 |
| 20260510034216 | 62 | 170 | 0.0 | 0.0 | 0.00 | 0.20 | 0.20 | 77 | 1011.6 |
| 20260510033711 | 62 | 147 | 0.0 | 0.0 | 0.00 | 0.20 | 0.20 | 76 | 1011.7 |
| 20260510033209 | 62 | 157 | 0.0 | 0.0 | 0.00 | 0.20 | 0.20 | 76 | 1011.8 |
| 20260510032705 | 63 | 147 | 0.0 | 0.0 | 0.00 | 0.20 | 0.20 | 77 | 1011.7 |
| 20260510032201 | 62 | 147 | 0.0 | 0.0 | 0.00 | 0.20 | 0.20 | 78 | 1011.5 |
| 20260510031655 | 63 | 149 | 0.0 | 0.0 | 0.00 | 0.20 | 0.20 | 77 | 1011.4 |
| 20260510031152 | 61 | 151 | 0.0 | 0.0 | 0.00 | 0.20 | 0.20 | 79 | 1011.5 |
| 20260510030646 | 61 | 147 | 0.0 | 0.0 | 0.00 | 0.20 | 0.20 | 81 | 1011.3 |
| 20260510030145 | 61 | 146 | 0.0 | 0.0 | 0.00 | 0.20 | 0.20 | 81 | 1011.3 |
| 20260510025641 | 61 | 146 | 0.0 | 0.0 | 0.00 | 0.20 | 0.20 | 82 | 1011.2 |
| 20260510025139 | 62 | 147 | 0.0 | 0.0 | 0.00 | 0.20 | 0.20 | 80 | 1011.4 |
| 20260510024635 | 62 | 148 | 0.0 | 0.0 | 0.00 | 0.20 | 0.20 | 79 | 1011.7 |
| 20260510024132 | 62 | 151 | 1.0 | 1.0 | 0.00 | 0.20 | 0.20 | 76 | 1011.3 |
| 20260510023628 | 62 | 147 | 0.0 | 0.0 | 0.00 | 0.20 | 0.20 | 80 | 1011.4 |
| 20260510023125 | 62 | 146 | 0.0 | 0.0 | 0.00 | 0.20 | 0.20 | 78 | 1011.4 |
| 20260510022625 | 62 | 148 | 0.0 | 0.0 | 0.00 | 0.20 | 0.20 | 77 | 1011.3 |
| 20260510022115 | 62 | 145 | 0.0 | 0.0 | 0.00 | 0.20 | 0.20 | 77 | 1011.0 |
| 20260510021611 | 63 | 145 | 0.0 | 0.0 | 0.00 | 0.20 | 0.20 | 79 | 1011.2 |
| 20260510021108 | 63 | 146 | 0.0 | 0.0 | 0.00 | 0.20 | 0.20 | 76 | 1011.0 |
| 20260510020602 | 63 | 145 | 0.0 | 0.0 | 0.00 | 0.20 | 0.20 | 77 | 1011.2 |
| 20260510020058 | 63 | 148 | 0.0 | 0.0 | 0.00 | 0.20 | 0.20 | 75 | 1011.1 |
| 20260510015554 | 63 | 144 | 0.0 | 0.0 | 0.00 | 0.20 | 0.20 | 77 | 1010.9 |
| 20260510015050 | 63 | 143 | 0.0 | 0.0 | 0.00 | 0.20 | 0.20 | 75 | 1011.1 |
| 20260510014546 | 64 | 144 | 0.0 | 0.0 | 0.00 | 0.20 | 0.20 | 74 | 1010.9 |
| 20260510014044 | 64 | 147 | 0.0 | 0.0 | 0.00 | 0.20 | 0.20 | 74 | 1010.7 |
| 20260510013538 | 64 | 142 | 0.0 | 0.0 | 0.00 | 0.20 | 0.20 | 73 | 1010.6 |
| 20260510013034 | 65 | 143 | 0.0 | 0.0 | 0.00 | 0.20 | 0.20 | 73 | 1010.4 |
| 20260510012528 | 65 | 147 | 0.0 | 0.0 | 0.00 | 0.20 | 0.20 | 71 | 1010.5 |
| 20260510012025 | 64 | 147 | 0.0 | 0.0 | 0.00 | 0.20 | 0.20 | 72 | 1010.3 |
| 20260510011525 | 65 | 147 | 0.0 | 0.0 | 0.00 | 0.20 | 0.20 | 73 | 1010.4 |
| 20260510011020 | 66 | 144 | 0.0 | 0.0 | 0.00 | 0.20 | 0.20 | 72 | 1010.1 |
| 20260510010518 | 66 | 148 | 0.0 | 0.0 | 0.00 | 0.20 | 0.20 | 68 | 1010.1 |
| 20260510010015 | 66 | 147 | 0.0 | 0.0 | 0.00 | 0.20 | 0.20 | 69 | 1010.1 |
| 20260510005510 | 66 | 148 | 0.0 | 0.0 | 0.00 | 0.20 | 0.20 | 68 | 1010.2 |
| 20260510005008 | 66 | 149 | 0.0 | 0.0 | 0.00 | 0.20 | 0.20 | 67 | 1010.1 |
| 20260510004505 | 67 | 148 | 0.0 | 0.0 | 0.00 | 0.20 | 0.20 | 66 | 1010.2 |
| 20260510004003 | 68 | 151 | 0.0 | 0.0 | 0.00 | 0.20 | 0.20 | 67 | 1010.0 |
| 20260510003500 | 67 | 164 | 0.0 | 0.0 | 0.00 | 0.20 | 0.20 | 64 | 1009.9 |
| 20260510002955 | 68 | 152 | 0.0 | 0.0 | 0.00 | 0.20 | 0.20 | 65 | 1009.9 |
| 20260510002451 | 68 | 151 | 0.0 | 0.0 | 0.00 | 0.20 | 0.20 | 64 | 1010.0 |
| 20260510001947 | 68 | 169 | 0.0 | 1.0 | 0.00 | 0.20 | 0.20 | 62 | 1009.8 |
| 20260510001445 | 69 | 151 | 0.0 | 1.0 | 0.00 | 0.20 | 0.20 | 60 | 1009.7 |
| 20260510000943 | 69 | 152 | 1.0 | 2.0 | 0.00 | 0.20 | 0.20 | 60 | 1009.4 |
| 20260510000440 | 69 | 156 | 1.0 | 1.0 | 0.00 | 0.20 | 0.20 | 60 | 1009.5 |
| 20260509235934 | 69 | 163 | 2.0 | 3.0 | 0.00 | 0.20 | 0.20 | 59 | 1009.3 |
| 20260509235426 | 70 | 157 | 0.0 | 0.0 | 0.00 | 0.20 | 0.20 | 60 | 1009.2 |
| 20260509234922 | 70 | 221 | 3.0 | 3.0 | 0.00 | 0.20 | 0.20 | 58 | 1009.2 |
| 20260509234419 | 70 | 154 | 0.0 | 1.0 | 0.00 | 0.20 | 0.20 | 57 | 1009.2 |
| 20260509233917 | 71 | 181 | 0.0 | 0.0 | 0.00 | 0.20 | 0.20 | 57 | 1009.0 |
| 20260509233415 | 71 | 147 | 2.0 | 3.0 | 0.00 | 0.20 | 0.20 | 55 | 1009.2 |
| 20260509232910 | 71 | 129 | 1.0 | 1.0 | 0.00 | 0.20 | 0.20 | 56 | 1009.2 |
| 20260509232408 | 71 | 151 | 1.0 | 1.0 | 0.00 | 0.20 | 0.20 | 57 | 1008.9 |
| 20260509231904 | 71 | 154 | 1.0 | 1.0 | 0.00 | 0.20 | 0.20 | 57 | 1009.1 |
| 20260509231401 | 71 | 173 | 1.0 | 2.0 | 0.00 | 0.20 | 0.20 | 55 | 1009.3 |
| 20260509230859 | 71 | 170 | 3.0 | 3.0 | 0.00 | 0.20 | 0.20 | 56 | 1009.0 |
| 20260509230355 | 71 | 211 | 4.0 | 6.0 | 0.00 | 0.20 | 0.20 | 55 | 1009.0 |
| 20260509225851 | 71 | 154 | 0.0 | 1.0 | 0.00 | 0.20 | 0.20 | 56 | 1009.0 |
| 20260509225348 | 71 | 161 | 3.0 | 5.0 | 0.00 | 0.20 | 0.20 | 57 | 1009.1 |
| 20260509224844 | 72 | 140 | 3.0 | 5.0 | 0.00 | 0.20 | 0.20 | 55 | 1008.9 |
| 20260509224340 | 72 | 223 | 2.0 | 3.0 | 0.00 | 0.20 | 0.20 | 57 | 1008.7 |
| 20260509223837 | 72 | 227 | 5.0 | 8.0 | 0.00 | 0.20 | 0.20 | 54 | 1008.8 |
| 20260509223334 | 73 | 140 | 3.0 | 5.0 | 0.00 | 0.20 | 0.20 | 54 | 1008.9 |
| 20260509222831 | 73 | 162 | 1.0 | 1.0 | 0.00 | 0.20 | 0.20 | 56 | 1008.8 |
| 20260509222326 | 73 | 219 | 6.0 | 8.0 | 0.00 | 0.20 | 0.20 | 56 | 1008.7 |
| 20260509221821 | 73 | 159 | 4.0 | 6.0 | 0.00 | 0.20 | 0.20 | 55 | 1008.6 |
| 20260509221320 | 73 | 165 | 2.0 | 2.0 | 0.00 | 0.20 | 0.20 | 57 | 1009.0 |
| 20260509220819 | 73 | 41 | 2.0 | 5.0 | 0.00 | 0.20 | 0.20 | 56 | 1008.6 |